TimeCDT,TemperatureF,Dew PointF,Humidity,Sea Level PressureIn,VisibilityMPH,Wind Direction,Wind SpeedMPH,Gust SpeedMPH,PrecipitationIn,Events,Conditions,WindDirDegrees,DateUTC
12:53 AM,79.0,61.0,54,29.98,10.0,SSE,10.4,-,N/A,,Clear,160,2013-08-20 05:53:00
1:53 AM,78.1,63.0,60,29.98,10.0,South,6.9,-,N/A,,Clear,180,2013-08-20 06:53:00
2:53 AM,75.9,63.0,64,29.98,10.0,South,5.8,-,N/A,,Clear,180,2013-08-20 07:53:00
3:53 AM,73.9,63.0,68,29.98,10.0,South,3.5,-,N/A,,Clear,190,2013-08-20 08:53:00
4:53 AM,72.0,63.0,73,29.98,10.0,Calm,Calm,-,N/A,,Clear,0,2013-08-20 09:53:00
5:53 AM,71.1,62.1,73,29.98,10.0,Calm,Calm,-,N/A,,Clear,0,2013-08-20 10:53:00
6:53 AM,69.1,61.0,75,29.99,10.0,Calm,Calm,-,N/A,,Clear,0,2013-08-20 11:53:00
7:53 AM,70.0,62.1,76,30.01,9.0,NE,3.5,-,N/A,,Clear,50,2013-08-20 12:53:00
8:53 AM,78.1,63.0,60,30.02,10.0,Calm,Calm,-,N/A,,Clear,0,2013-08-20 13:53:00
9:53 AM,82.0,61.0,49,30.03,10.0,SSE,3.5,-,N/A,,Clear,160,2013-08-20 14:53:00
10:53 AM,84.9,55.9,37,30.03,10.0,North,-9999.0,-,N/A,,Clear,0,2013-08-20 15:53:00
11:53 AM,88.0,54.0,31,30.03,10.0,South,6.9,-,N/A,,Clear,180,2013-08-20 16:53:00
12:53 PM,91.0,54.0,28,30.01,10.0,Variable,5.8,18.4,N/A,,Partly Cloudy,0,2013-08-20 17:53:00
1:53 PM,91.9,55.0,29,30.00,10.0,Variable,6.9,19.6,N/A,,Partly Cloudy,0,2013-08-20 18:53:00
2:53 PM,91.0,53.1,27,29.99,10.0,ESE,12.7,-,N/A,,Partly Cloudy,110,2013-08-20 19:53:00
3:53 PM,91.9,55.0,29,29.97,10.0,East,8.1,-,N/A,,Scattered Clouds,80,2013-08-20 20:53:00
4:53 PM,93.0,55.0,28,29.95,10.0,ESE,10.4,16.1,N/A,,Partly Cloudy,110,2013-08-20 21:53:00
5:53 PM,91.9,53.1,27,29.94,10.0,SE,5.8,-,N/A,,Partly Cloudy,130,2013-08-20 22:53:00
6:53 PM,90.0,55.9,31,29.94,10.0,ESE,4.6,-,N/A,,Clear,120,2013-08-20 23:53:00
7:53 PM,88.0,62.1,42,29.95,10.0,SSE,5.8,-,N/A,,Mostly Cloudy,150,2013-08-21 00:53:00
8:53 PM,84.0,63.0,49,29.95,10.0,SSE,4.6,-,N/A,,Clear,150,2013-08-21 01:53:00
9:53 PM,82.0,64.0,54,29.98,10.0,SSE,5.8,-,N/A,,Clear,150,2013-08-21 02:53:00
10:53 PM,80.1,64.9,60,30.00,10.0,South,8.1,-,N/A,,Clear,170,2013-08-21 03:53:00
11:53 PM,78.1,64.9,64,30.01,10.0,SSE,5.8,-,N/A,,Clear,150,2013-08-21 04:53:00